Regional Weather Roundup
Issued by NWS

Home | Current Version | Previous Version | Graphics & Text | Print | Product List | Glossary On
Versions: 1 2 3 4 5 6 7 8 9 10 11 12 13 14 15 16 17 18 19 20 21 22 23 24 25 26 27 28 29 30 31 32 33 34 35 36 37 38 39 40 41 42 43 44 45 46 47 48 49 50
000
ASUS43 KLSX 311757
RWRMO

WEATHER SUMMARY FOR MISSOURI
NATIONAL WEATHER SERVICE SPRINGFIELD MO
100 PM CDT WED AUG 31 2016

NOTE: "FAIR" INDICATES FEW OR NO CLOUDS BELOW 12,000 FEET WITH NO
       SIGNIFICANT WEATHER AND/OR OBSTRUCTIONS TO VISIBILITY.
       CURRENT SKY AND/OR WEATHER CONDITIONS ARE NOT AVAILABLE FOR
       CHILLICOTHE AND FARMINGTON.

MOZ001>031-035>038-043-044-053-054-311900-
...NORTHERN AND WESTERN MISSOURI...

CITY           SKY/WX    TMP DP  RH WIND       PRES   REMARKS
KANSAS CTY INT CLOUDY    77  69  76 NE7       30.13F
6HR MIN TEMP:  69; 6HR MAX TEMP:  77; 6HR PCP: TRACE;

LEE`S SUMMIT   CLOUDY    78  71  79 NE7       30.13S
6HR MIN TEMP:  71; 6HR MAX TEMP:  79; 6HR PCP:  0.09;

ST JOSEPH      CLOUDY    79  69  71 NE5       30.14F
6HR MIN TEMP:  72; 6HR MAX TEMP:  79; 6HR PCP: TRACE;

CHILLICOTHE      N/A     77  70  79 N3        30.13F
6HR MIN TEMP:  72; 6HR MAX TEMP:  77; 6HR PCP:  0.18;


$$
MOZ066>068-077>081-088>096-101>105-311900-
...SOUTHWEST MISSOURI...

CITY           SKY/WX    TMP DP  RH WIND       PRES   REMARKS
SPRINGFIELD    RAIN      73  70  90 NE7       30.08F FOG
6HR MIN TEMP:  70; 6HR MAX TEMP:  74; 6HR PCP:  0.49;

JOPLIN         PTSUNNY   81  73  76 NW3       30.09F
6HR MIN TEMP:  70; 6HR MAX TEMP:  81; 6HR PCP:  0.25;

BRANSON        CLOUDY    77  73  88 CALM      30.10F

$$
MOZ032>034-039>042-045>050-055>058-069>072-311900-
...CENTRAL MISSOURI...

CITY           SKY/WX    TMP DP  RH WIND       PRES   REMARKS
COLUMBIA       NOT AVBL
JEFFERSON CITY RAIN      71  69  93 W3        30.09F FOG
6HR MIN TEMP:  70; 6HR MAX TEMP:  76; 6HR PCP:  0.34;

ROLLA          CLOUDY    78  71  79 NW7       30.09F
6HR MIN TEMP:  69; 6HR MAX TEMP:  81;

SEDALIA        CLOUDY    79  71  76 N9        30.12F
6HR MIN TEMP:  70; 6HR MAX TEMP:  80; 6HR PCP:  0.06;

OSAGE BEACH    HVY RAIN  70  68  94 NE7       30.12S FOG

$$
MOZ051-052-059>065-311900-
...EAST CENTRAL MISSOURI...

CITY           SKY/WX    TMP DP  RH WIND       PRES   REMARKS
ST LOUIS INTL  CLOUDY    86  71  60 W8        30.05F HX  91
6HR MIN TEMP:  72; 6HR MAX TEMP:  86;


$$
MOZ072>076-082>087-097>100-106>115-311900-
...SOUTH CENTRAL AND SOUTHEAST MISSOURI...

CITY           SKY/WX    TMP DP  RH WIND       PRES   REMARKS
CAPE GIRARDEAU NOT AVBL
POPLAR BLUFF   SUNNY     89  74  60 N6        30.00F HX  98
6HR MIN TEMP:  71; 6HR MAX TEMP:  89;

WEST PLAINS    CLOUDY    82  71  69 N9        30.10F
6HR MIN TEMP:  68; 6HR MAX TEMP:  85;


$$



USA.gov is the U.S. government's official web portal to all federal, state and local government web resources and services.